Carter, OK (73627)

1:18 PM CDT on August 28, 2015 (GMT -0500)
Clinton-Sherman | | Change Station
CLOSE
Current Station
Airport
Location: Clinton-Sherman,
Elevation: 1923 ft
Nearby Weather Stations

Elev 1923 ft 35.34 °N, 99.20 °W | Updated 25 minutes ago

Overcast
Overcast
85 °F
Feels Like 85 °F
N
13
Wind Variable Wind from SW

Today
High -- | Low -- °F
--% Chance of Precip.
Yesterday
High -- | Low -- °F
Precip. -- in
7:07 AM 8:10 PM
Waxing Gibbous, 98% visible
Pressure 29.93 in
Visibility 10.0 miles
Clouds Few 11000 ft
Heat Index 85 °F
Dew Point 61 °F
Humidity 44%
Rainfall 0.00 in
Snow Depth Not available.
UV 10 out of 12
Pollen 8.90 out of 12
Air Quality Not available.
Flu Activity Not available.
METAR KCSM 281753Z 23011KT 10SM FEW110 29/16 A3001 RMK AO2 SLP134 60000 T02940161 10294 20228 58001
Pressure 29.93 in
Visibility 10.0 miles
Clouds Few 11000 ft
Heat Index 85 °F
Dew Point 61 °F
Humidity 44%
Rainfall 0.00 in
Snow Depth Not available.
UV 10 out of 12
Pollen 8.90 out of 12
Air Quality Not available.
Flu Activity Not available.
METAR KCSM 281753Z 23011KT 10SM FEW110 29/16 A3001 RMK AO2 SLP134 60000 T02940161 10294 20228 58001

10-Day Weather Forecast

×

Almanac

Astronomy

Aug. 28, 2015 Rise Set
Actual Time
Civil Twilight
Nautical Twilight
Astronomical Twilight
Moon
Length of Visible Light
Length of Day
Tomorrow will be .
, % of the Moon is Illuminated

Today's Extremes

State Highs State Lows

Community

WunderPhotos

Upload Photos

1,850,447 photos uploaded!

WunderBlogs® & News

Nearby

Air Quality

  Air Quality AQ Index Pollutant
Not available.

Snow Depth

Station Depth Elevation

Earthquake Activity

City Distance Mag. Time & Date
Minimum magnitude displayed is 2.5.

Coastal Water Temperatures

Place Temperature

Stations

Nearby Weather Stations

Station Location Temp. Windchill Dew Point Humidity Wind Precip. Elev Updated Type